[[{"header":{"parameterUnit":"m.s-1","parameterCategory":1,"la1":30.2991,"la2":30.254,"lo1":-89.0895,"lo2":-89.0444,"dy":0.0017,"dx":0.0017,"nx":28,"ny":28,"refTime":"2025-08-28T21:00:00:Z","depth":0,"parameterNumber":2,"parameterNumberName":"U-component_of_WINDS"},"data":[0,0,0,0,0,0,0,0,0,0,0,0,0,0,0,0,0,0,0,0,0,0,0,0,0,0,0,0,0,0,0,0,0,0,0,0,0,0,0,0,0,0,0,0,0,0,0,0,0,0,0,0,0,0,0,0,0,0,-2.1074,-2.1072,0,-2.088,-2.0878,-2.0876,-2.0708,-2.0706,-2.0704,-2.0702,-2.0501,-2.0498,-2.0494,0,0,0,0,0,0,0,0,0,0,0,0,0,-2.1297,-2.1294,-2.1075,-2.1072,-2.107,-2.088,-2.0878,-2.0875,-2.0708,-2.0706,-2.0704,-2.0702,-2.0502,-2.0498,-2.0494,0,0,0,0,0,0,0,0,0,0,0,0,0,-2.1162,-2.1293,-2.1075,-2.0964,-2.0952,-2.0881,-2.0878,-2.0874,-2.0709,-2.0706,-2.0703,-2.0701,-2.0504,-2.0498,-2.0493,-2.0516,0,0,-2.0477,-2.0474,0,0,0,0,0,0,0,0,-2.1169,-2.1154,-2.0982,-2.0971,-2.0958,-2.0815,-2.0882,-2.0754,-2.071,-2.0801,-2.0702,-2.0699,-2.0608,-2.0594,-2.0563,-2.0507,-2.0498,-2.0476,-2.0473,-2.047,-2.0469,0,0,0,0,0,0,0,-2.1179,-2.1161,-2.0997,-2.098,-2.0965,-2.0922,-2.09,-2.0857,-2.0723,-2.0793,-2.078,-2.076,-2.06,-2.0569,-2.0557,-2.0495,-2.0476,-2.0471,-2.0468,-2.0466,-2.0445,-2.0447,0,0,0,0,0,0,-2.1206,-2.117,-2.1004,-2.0992,-2.1059,-2.092,-2.0895,-2.0864,-2.0723,-2.0698,-2.0762,-2.0753,-2.058,-2.0564,-2.055,-2.0566,-2.0471,-2.0465,-2.0462,-2.0442,-2.0445,-2.0448,0,0,0,0,0,0,-2.1212,-2.1193,-2.1011,-2.1077,-2.1051,-2.092,-2.0886,-2.0862,-2.083,-2.0699,-2.0674,-2.0755,-2.0577,-2.0557,-2.0525,-2.0557,-2.0463,-2.0458,-2.0439,-2.0443,-2.0447,-2.06,0,0,0,0,0,0,-2.1219,-2.1196,-2.1204,-2.1079,-2.1048,-2.0992,-2.0888,-2.086,-2.0821,-2.0807,-2.0686,-2.0663,-2.0573,-2.0534,-2.052,-2.0548,-2.0454,-2.0436,-2.0441,-2.0446,-2.0592,-2.0609,-2.0624,0,0,0,0,0,-2.1227,-2.1255,-2.1206,-2.1187,-2.1056,-2.0994,-2.0977,-2.0873,-2.0825,-2.0831,-2.0747,-2.0667,-2.0556,-2.0532,-2.0515,-2.0541,-2.0433,-2.0439,-2.0445,-2.0585,-2.0606,-2.0624,0,0,0,0,0,0,-2.1388,-2.1237,-2.118,-2.1169,-2.1096,-2.0966,-2.0972,-2.0899,-2.0837,-2.0826,-2.0699,-2.0673,-2.0655,-2.0594,-2.0572,-2.0555,-2.0483,-2.0486,-2.0596,-2.0614,-2.063,-2.0645,-2.0449,0,0,0,0,0,-2.1422,-2.1386,-2.1255,-2.1257,-2.1224,-2.1105,-2.1074,-2.1,-2.0919,-2.0887,-2.08,-2.0724,-2.0671,-2.0639,-2.0584,-2.0582,-2.0552,-2.0591,-2.0607,-2.0621,-2.0625,-2.0618,-2.0633,-2.0468,-2.0468,-2.0468,0,0,-2.1492,-2.1405,-2.139,-2.1287,-2.1222,-2.1186,-2.108,-2.1046,-2.1018,-2.0881,-2.0846,-2.078,-2.0686,-2.0669,-2.0657,-2.0618,-2.0664,-2.0629,-2.0641,-2.0637,-2.0626,-2.0642,-2.0656,-2.0472,-2.0471,-2.0471,0,0,-2.1601,-2.1532,-2.1526,-2.1463,-2.1365,-2.1285,-2.1284,-2.1165,-2.1116,-2.1079,-2.0975,-2.0938,-2.0851,-2.0788,-2.0744,-2.0828,-2.0751,-2.0813,-2.0897,-2.0891,-2.0904,-2.0915,-2.0944,-2.0957,-2.0817,-2.0818,-2.0818,0,-2.1701,-2.1643,-2.1532,-2.1504,-2.1462,-2.1337,-2.1329,-2.1272,-2.1162,-2.1135,-2.1092,-2.0978,-2.0906,-2.0872,-2.0893,-2.0862,-2.0855,-2.0827,-2.0912,-2.0922,-2.093,-2.0956,-2.0968,-2.0826,-2.0825,-2.0824,-2.0823,0,-2.177,-2.1731,-2.1738,-2.1635,-2.1592,-2.1575,-2.146,-2.143,-2.1359,-2.1284,-2.1246,-2.1155,-2.1078,-2.1064,-2.0995,-2.102,-2.0998,-2.0936,-2.0861,-2.0956,-2.0978,-2.0988,-2.0837,-2.0834,-2.0832,-2.083,0,0,-2.1977,-2.1811,-2.1815,-2.1766,-2.1648,-2.1616,-2.1592,-2.1517,-2.1493,-2.1421,-2.1396,-2.1324,-2.1265,-2.1216,-2.1138,-2.1133,-2.1204,-2.107,-2.1066,-2.1098,-2.1224,-2.1273,-2.1286,-2.1152,-2.1154,-2.1155,-2.1232,0,-2.2067,-2.2018,-2.1916,-2.1898,-2.186,-2.174,-2.1718,-2.1643,-2.1571,-2.1527,-2.1447,-2.1398,-2.1324,-2.1293,-2.1283,-2.1198,-2.1228,-2.1191,-2.1127,-2.1127,-2.1156,-2.1298,-2.1349,-2.1426,-2.124,-2.1241,-2.1242,0,-2.2166,-2.2101,-2.208,-2.1963,-2.1943,-2.1926,-2.1849,-2.1809,-2.172,-2.1667,-2.1612,-2.1526,-2.1492,-2.1424,-2.1375,-2.1352,-2.1319,-2.1273,-2.1274,-2.1264,-2.1191,-2.1292,-2.1449,-2.1461,-2.1255,-2.1254,-2.1253,0,-2.2319,-2.2226,-2.2201,-2.2162,-2.2026,-2.2016,-2.1958,-2.1867,-2.1828,-2.1759,-2.1732,-2.1661,-2.1622,-2.1568,-2.1464,-2.1424,-2.1426,-2.1349,-2.1381,-2.1384,-2.1387,-2.1389,-2.1541,-2.1367,-2.1367,-2.1366,-2.1366,0,-2.2431,-2.2423,-2.2267,-2.2252,-2.2239,-2.2121,-2.211,-2.2041,-2.196,-2.1928,-2.1818,-2.1791,-2.1655,-2.1611,-2.1529,-2.15,-2.1483,-2.1439,-2.1418,-2.1449,-2.1455,-2.1427,-2.1419,-2.1369,-2.1369,-2.1368,-2.1367,0,-2.26,-2.2496,-2.246,-2.2333,-2.2301,-2.2297,-2.2187,-2.2167,-2.2087,-2.2048,-2.2032,-2.1907,-2.1849,-2.174,-2.1652,-2.1596,-2.1585,-2.1547,-2.1616,-2.1602,-2.164,-2.1638,-2.178,-2.1792,-2.1611,-2.1613,-2.1615,0,-2.2678,-2.2669,-2.2541,-2.2512,-2.2459,-2.2414,-2.2373,-2.2255,-2.2217,-2.2115,-2.2107,-2.204,-2.1981,-2.1893,-2.1794,-2.1725,-2.1685,-2.1739,-2.1674,-2.1705,-2.1685,-2.1687,-2.1685,-2.1754,-2.1757,-2.1759,-2.1761,0,-2.2829,-2.2777,-2.2724,-2.2652,-2.2607,-2.2544,-2.2476,-2.2458,-2.2324,-2.2287,-2.2226,-2.2181,-2.2089,-2.2024,-2.194,-2.1879,-2.1798,-2.1782,-2.1785,-2.1818,-2.1858,-2.1836,-2.1656,-2.1779,-2.1778,-2.1776,-2.1775,-2.1774,-2.2954,-2.294,-2.2848,-2.2791,-2.2727,-2.2665,-2.264,-2.2557,-2.2505,-2.2422,-2.2355,-2.23,-2.2209,-2.2088,-2.2031,-2.1985,-2.1947,-2.1952,-2.1953,-2.1957,-2.1969,-2.1865,-2.1969,-2.1969,-2.1968,-2.1967,-2.1967,0,-2.3099,-2.3033,-2.2982,-2.289,-2.2845,-2.2772,-2.2692,-2.2659,-2.2612,-2.2535,-2.2478,-2.2408,-2.2344,-2.2239,-2.2166,-2.2149,-2.211,-2.2134,-2.2134,-2.2121,-2.2008,-2.2012,-2.2167,-2.2167,-2.2167,-2.2166,-2.2166,-2.2166,-2.3169,-2.3141,-2.3078,-2.3016,-2.2949,-2.2895,-2.2856,-2.2797,-2.2734,-2.2661,-2.2608,-2.254,-2.245,-2.2369,-2.2306,-2.2277,-2.2255,-2.2291,-2.225,-2.2147,-2.2129,-2.2111,-2.2114,-2.2287,-2.2288,-2.2366,-2.2367,-2.2367]},{"header":{"parameterUnit":"m.s-1","parameterCategory":1,"la1":30.2991,"la2":30.254,"lo1":-89.0895,"lo2":-89.0444,"dy":0.0017,"dx":0.0017,"nx":28,"ny":28,"refTime":"2025-08-28T21:00:00:Z","depth":0,"parameterNumber":3,"parameterNumberName":"V-component_of_WINDS"},"data":[0,0,0,0,0,0,0,0,0,0,0,0,0,0,0,0,0,0,0,0,0,0,0,0,0,0,0,0,0,0,0,0,0,0,0,0,0,0,0,0,0,0,0,0,0,0,0,0,0,0,0,0,0,0,0,0,0,0,-1.5531,-1.5532,0,-1.5613,-1.5614,-1.5615,-1.5612,-1.5611,-1.561,-1.5609,-1.5694,-1.5697,-1.57,0,0,0,0,0,0,0,0,0,0,0,0,0,-1.5373,-1.5376,-1.5531,-1.5532,-1.5533,-1.5613,-1.5614,-1.5615,-1.5613,-1.5611,-1.561,-1.5609,-1.5692,-1.5696,-1.57,0,0,0,0,0,0,0,0,0,0,0,0,0,-1.5447,-1.5377,-1.5531,-1.5542,-1.5543,-1.5612,-1.5614,-1.5615,-1.5613,-1.5611,-1.561,-1.5608,-1.5691,-1.5696,-1.5701,-1.5765,0,0,-1.5716,-1.5718,0,0,0,0,0,0,0,0,-1.5443,-1.5453,-1.5539,-1.5541,-1.5543,-1.5601,-1.5589,-1.5665,-1.5613,-1.5587,-1.5609,-1.5607,-1.5664,-1.5671,-1.569,-1.5769,-1.5773,-1.5716,-1.5719,-1.5721,-1.5723,0,0,0,0,0,0,0,-1.5438,-1.5449,-1.5563,-1.554,-1.5543,-1.5542,-1.5551,-1.5604,-1.5634,-1.5589,-1.5589,-1.5598,-1.5665,-1.5685,-1.5692,-1.5774,-1.5716,-1.5721,-1.5724,-1.5726,-1.5909,-1.5911,0,0,0,0,0,0,-1.543,-1.5445,-1.5561,-1.5566,-1.5488,-1.5546,-1.5556,-1.5584,-1.5633,-1.5639,-1.56,-1.5598,-1.5678,-1.5686,-1.5695,-1.5774,-1.5721,-1.5726,-1.5729,-1.5907,-1.591,-1.5912,0,0,0,0,0,0,-1.5427,-1.5441,-1.5558,-1.5506,-1.552,-1.5551,-1.5582,-1.5586,-1.5607,-1.5642,-1.5647,-1.5615,-1.5677,-1.5688,-1.5748,-1.5777,-1.5728,-1.5733,-1.5905,-1.5908,-1.5911,-1.5932,0,0,0,0,0,0,-1.5422,-1.5439,-1.5464,-1.5506,-1.5523,-1.5609,-1.5584,-1.5589,-1.5615,-1.5614,-1.5657,-1.5663,-1.5676,-1.574,-1.5753,-1.5783,-1.5737,-1.5903,-1.5907,-1.591,-1.5928,-1.5935,-1.594,0,0,0,0,0,-1.5417,-1.5467,-1.5465,-1.5479,-1.5555,-1.561,-1.562,-1.5634,-1.5618,-1.5643,-1.5665,-1.5662,-1.5771,-1.5746,-1.576,-1.5792,-1.5901,-1.5905,-1.591,-1.5926,-1.5934,-1.594,0,0,0,0,0,0,-1.5428,-1.5473,-1.5471,-1.5537,-1.557,-1.561,-1.5642,-1.5642,-1.5681,-1.5678,-1.5694,-1.5703,-1.5763,-1.5783,-1.5755,-1.5857,-1.5834,-1.5841,-1.5842,-1.5849,-1.5855,-1.5849,-1.5741,0,0,0,0,0,-1.5438,-1.5479,-1.5516,-1.557,-1.5587,-1.5611,-1.5636,-1.5644,-1.5679,-1.5693,-1.572,-1.5754,-1.5796,-1.5824,-1.5864,-1.5931,-1.5941,-1.596,-1.5966,-1.597,-1.5977,-1.6014,-1.6023,-1.5926,-1.5926,-1.5926,0,0,-1.5459,-1.5489,-1.5514,-1.5573,-1.56,-1.5642,-1.5623,-1.5669,-1.5701,-1.57,-1.5758,-1.5779,-1.5818,-1.5881,-1.5911,-1.59,-1.6005,-1.5976,-1.5979,-1.5983,-1.6019,-1.6028,-1.6036,-1.5929,-1.5928,-1.5928,0,0,-1.552,-1.5546,-1.5594,-1.5621,-1.5661,-1.5677,-1.5689,-1.5729,-1.5743,-1.5801,-1.5801,-1.5839,-1.5911,-1.5939,-1.5963,-1.6033,-1.6032,-1.6046,-1.6077,-1.6113,-1.6121,-1.6128,-1.6154,-1.6163,-1.6052,-1.6052,-1.6052,0,-1.5542,-1.5606,-1.5619,-1.5665,-1.5691,-1.5692,-1.5741,-1.5766,-1.5818,-1.5836,-1.5823,-1.5913,-1.594,-1.601,-1.6027,-1.6046,-1.606,-1.6042,-1.6119,-1.6126,-1.6132,-1.6157,-1.6167,-1.6054,-1.6053,-1.6053,-1.6053,0,-1.5631,-1.5675,-1.5709,-1.5759,-1.5788,-1.5836,-1.5856,-1.5884,-1.5889,-1.5907,-1.5966,-1.5997,-1.6045,-1.6061,-1.6067,-1.6132,-1.6125,-1.6115,-1.6093,-1.6143,-1.6166,-1.6176,-1.6056,-1.6055,-1.6055,-1.6054,0,0,-1.5702,-1.5758,-1.577,-1.5793,-1.5837,-1.5871,-1.5918,-1.5964,-1.5989,-1.6024,-1.6064,-1.6125,-1.6116,-1.6143,-1.6151,-1.6183,-1.6237,-1.6169,-1.617,-1.6181,-1.6312,-1.632,-1.633,-1.6236,-1.6238,-1.6239,-1.6309,0,-1.5769,-1.5852,-1.5865,-1.5939,-1.598,-1.5981,-1.6022,-1.6053,-1.6071,-1.6108,-1.6127,-1.617,-1.6155,-1.6171,-1.6202,-1.6224,-1.6264,-1.6219,-1.6274,-1.6276,-1.6265,-1.6343,-1.6351,-1.6416,-1.6318,-1.632,-1.6321,0,-1.5857,-1.5895,-1.5973,-1.6011,-1.6029,-1.6066,-1.6108,-1.6144,-1.618,-1.619,-1.6219,-1.6224,-1.6273,-1.6247,-1.6315,-1.6284,-1.6307,-1.6321,-1.6324,-1.6331,-1.6302,-1.6352,-1.6436,-1.6446,-1.6335,-1.6334,-1.6333,0,-1.5903,-1.5973,-1.6028,-1.6047,-1.6093,-1.6119,-1.6139,-1.6173,-1.62,-1.6237,-1.6254,-1.6297,-1.632,-1.6353,-1.6369,-1.6349,-1.6436,-1.6412,-1.6446,-1.6446,-1.6466,-1.6465,-1.6556,-1.6479,-1.6479,-1.6478,-1.6478,0,-1.5976,-1.6024,-1.6049,-1.6084,-1.6137,-1.6151,-1.6204,-1.6223,-1.6253,-1.6291,-1.6294,-1.633,-1.6348,-1.6386,-1.6399,-1.6454,-1.6464,-1.6474,-1.6477,-1.6475,-1.6473,-1.6491,-1.6487,-1.6481,-1.648,-1.648,-1.648,0,-1.6037,-1.6056,-1.6117,-1.6154,-1.6165,-1.6203,-1.6236,-1.6269,-1.6285,-1.6334,-1.6346,-1.6372,-1.6417,-1.6436,-1.6491,-1.65,-1.6563,-1.6562,-1.6551,-1.6552,-1.6586,-1.6583,-1.6693,-1.6708,-1.662,-1.6621,-1.6621,0,-1.6083,-1.612,-1.6162,-1.6188,-1.6209,-1.625,-1.6277,-1.6291,-1.6319,-1.6362,-1.6391,-1.6436,-1.6473,-1.6546,-1.657,-1.6612,-1.6613,-1.6648,-1.6619,-1.6616,-1.6615,-1.6613,-1.6617,-1.6654,-1.6655,-1.6656,-1.6656,0,-1.6164,-1.6171,-1.621,-1.6252,-1.6284,-1.6318,-1.6351,-1.6372,-1.6391,-1.6422,-1.6469,-1.6497,-1.6554,-1.6599,-1.6643,-1.6664,-1.6664,-1.6665,-1.6675,-1.6674,-1.6667,-1.6672,-1.6567,-1.6663,-1.6662,-1.6662,-1.6661,-1.6661,-1.622,-1.6253,-1.6287,-1.633,-1.6356,-1.6387,-1.642,-1.644,-1.6479,-1.6526,-1.6532,-1.6582,-1.6616,-1.6675,-1.6697,-1.6736,-1.6727,-1.6742,-1.6746,-1.675,-1.6753,-1.6659,-1.6744,-1.6744,-1.6744,-1.6744,-1.6744,0,-1.6302,-1.6323,-1.6363,-1.6409,-1.6442,-1.6438,-1.6474,-1.6503,-1.6546,-1.6578,-1.6614,-1.6667,-1.6711,-1.6738,-1.6782,-1.6808,-1.6809,-1.6819,-1.6818,-1.6823,-1.6758,-1.6745,-1.6817,-1.6817,-1.6817,-1.6817,-1.6817,-1.6817,-1.6348,-1.6404,-1.6415,-1.6483,-1.6504,-1.6553,-1.6574,-1.6602,-1.6627,-1.6687,-1.6723,-1.674,-1.6769,-1.6815,-1.6855,-1.6862,-1.6878,-1.6889,-1.6896,-1.6835,-1.6827,-1.682,-1.6808,-1.6892,-1.6892,-1.6957,-1.6958,-1.6958]}]]